{"data":{"norad_id":68988,"intl_designator":"2026-100J","name":"FOREST-17 (TELPERION)","alt_names":[],"object_type":"PAYLOAD","status":"ACTIVE","operator":null,"country":"GREC","launch_date":"2026-05-03","launch_site_code":"AFWTR","launch_vehicle":null,"mission":null,"orbit_class":"UNKNOWN","rcs_meters":null,"size_class":null,"mass_kg":null,"dimensions":null,"purposes":[],"wikipedia_slug":null,"has_3d_model":false,"image_url":null,"decayed_at":null,"tle_current":{"epoch":"2026-09-19T12:50:49.443072Z","epoch_age_seconds":102715,"freshness":"FRESH","line1":"1 68988U 26100J   26262.53529448  .00001016  00000+0  10330-3 0  9993","line2":"2 68988  97.7209 158.0929 0005391 172.3287 187.8016 14.92917396 20764","mean_motion":14.92917396,"eccentricity":0.0005391,"inclination_deg":97.7209,"raan_deg":158.0929,"arg_perigee_deg":172.3287,"mean_anomaly_deg":187.8016,"bstar":0.0001033,"rev_number":2076,"period_min":96.455437109797,"perigee_km":585.08857234472,"apogee_km":592.60037176789,"semimajor_km":6966.9814720563,"source":"CELESTRAK","updated_at":"2026-09-20T09:00:24.599836Z"}}}